Location: Alston School (historical)
(35.5076°N, 89.8251°W)
Time: 00:30:33
(UTC+00:00)

UNK - Pass Details

Date: 09 December 2025
Orbit: 653 x 673 km, 98.4° (Epoch: 24 January)

Event Time Altitude Azimuth Distance (km) Brightness Sun altitude
Rises 23:01:20 0° 14° (NNE) 3,016 6.7 -3.5°
Reaches altitude 10° 23:03:35 10° 17° (NNE) 2,095 5.9 -4.0°
Maximum altitude 23:08:09 74° 102° (ESE) 691 3.7 -4.8°
Drops below altitude 10° 23:12:40 10° 188° (S) 2,068 6.7 -5.6°
Sets 23:14:52 0° 190° (S) 2,973 7.6 -6.0°
